• In Germany
  • List of Countries
  • For 7 days
  • Water Temperature
  • Satellite Maps
  • Weather Map
  • Weather Widgets
  • user-avatar
    Login

    Hourly Weather Lezhe

    Today, 24 November, Friday

    Time Temperature Precipitation Wind Pressure Humidity
    00:00 +9°C° 0 mm 1 mps 741 mmHg 73%
    01:00 +9°C° 0 mm 1 mps 741 mmHg 73%
    02:00 +9°C° 0 mm 1 mps 741 mmHg 73%
    03:00 +8°C° 0 mm 1 mps 741 mmHg 73%
    04:00 +8°C° 0 mm 1 mps 741 mmHg 73%
    05:00 +8°C° 0 mm 1 mps 741 mmHg 73%
    06:00 +8°C° 0 mm 1 mps 741 mmHg 74%
    07:00 +8°C° 0 mm 1 mps 741 mmHg 74%
    08:00 +10°C° 0 mm 1 mps 741 mmHg 70%
    09:00 +12°C° 0 mm 1 mps 741 mmHg 66%
    10:00 +12°C° 0 mm 0 mps 741 mmHg 61%
    11:00 +14°C° 0 mm 1 mps 741 mmHg 61%
    12:00 +14°C° 0 mm 1 mps 740 mmHg 61%
    13:00 +15°C° 0 mm 1 mps 740 mmHg 61%
    14:00 +13°C° 0 mm 1 mps 740 mmHg 68%
    15:00 +12°C° 0 mm 1 mps 740 mmHg 75%
    16:00 +11°C° 0 mm 1 mps 740 mmHg 82%
    17:00 +11°C° 0 mm 1 mps 740 mmHg 85%
    18:00 +10°C° 0 mm 1 mps 740 mmHg 87%
    19:00 +9°C° 0 mm 1 mps 741 mmHg 90%
    20:00 +9°C° 0 mm 1 mps 741 mmHg 89%
    21:00 +9°C° 0 mm 1 mps 741 mmHg 89%
    22:00 +9°C° 0 mm 1 mps 741 mmHg 89%
    23:00 +9°C° 0 mm 1 mps 741 mmHg 88%

    Tomorrow, 25 November, Saturday

    Time Temperature Precipitation Wind Pressure Humidity
    00:00 +9°C° 0 mm 1 mps 741 mmHg 87%
    01:00 +8°C° 0 mm 1 mps 741 mmHg 86%
    02:00 +8°C° 0 mm 1 mps 741 mmHg 86%
    03:00 +8°C° 0 mm 1 mps 740 mmHg 85%
    04:00 +8°C° 0 mm 1 mps 740 mmHg 84%
    05:00 +8°C° 0 mm 1 mps 740 mmHg 84%
    06:00 +8°C° 0 mm 1 mps 740 mmHg 83%
    07:00 +8°C° 0 mm 1 mps 740 mmHg 82%
    08:00 +9°C° 0 mm 1 mps 740 mmHg 76%
    09:00 +11°C° 0 mm 1 mps 740 mmHg 70%
    10:00 +13°C° 0 mm 1 mps 740 mmHg 64%
    11:00 +13°C° 0 mm 1 mps 739 mmHg 63%
    12:00 +14°C° 0 mm 2 mps 739 mmHg 63%
    13:00 +14°C° 0 mm 2 mps 738 mmHg 62%
    14:00 +13°C° 0 mm 2 mps 738 mmHg 69%
    15:00 +12°C° 0 mm 1 mps 738 mmHg 75%
    16:00 +11°C° 0 mm 1 mps 738 mmHg 82%
    17:00 +11°C° 0 mm 1 mps 738 mmHg 84%
    18:00 +9°C° 0 mm 2 mps 738 mmHg 86%
    19:00 +8°C° 0 mm 2 mps 739 mmHg 88%
    20:00 +8°C° 0 mm 2 mps 739 mmHg 88%
    21:00 +8°C° 0 mm 2 mps 739 mmHg 87%
    22:00 +8°C° 0 mm 2 mps 739 mmHg 87%
    23:00 +8°C° 0 mm 2 mps 739 mmHg 86%

    Day after tomorrow, 26 November, Sunday

    Time Temperature Precipitation Wind Pressure Humidity
    00:00 +8°C° 0 mm 2 mps 739 mmHg 85%
    01:00 +8°C° 0 mm 3 mps 738 mmHg 85%
    02:00 +8°C° 0.1 mm 3 mps 738 mmHg 84%
    03:00 +8°C° 0.1 mm 3 mps 738 mmHg 84%
    04:00 +9°C° 0.1 mm 3 mps 737 mmHg 83%
    05:00 +9°C° 0.1 mm 3 mps 737 mmHg 83%
    06:00 +9°C° 0.1 mm 3 mps 737 mmHg 83%
    07:00 +9°C° 0.1 mm 3 mps 737 mmHg 83%
    08:00 +9°C° 0.2 mm 3 mps 736 mmHg 81%
    09:00 +10°C° 0.2 mm 4 mps 736 mmHg 78%
    10:00 +11°C° 0.2 mm 4 mps 736 mmHg 75%
    11:00 +12°C° 0.6 mm 4 mps 736 mmHg 76%
    12:00 +12°C° 0.6 mm 4 mps 735 mmHg 76%
    13:00 +13°C° 0.6 mm 4 mps 734 mmHg 77%
    14:00 +12°C° 1.7 mm 4 mps 734 mmHg 81%
    15:00 +12°C° 1.7 mm 4 mps 734 mmHg 86%
    16:00 +11°C° 1.7 mm 4 mps 734 mmHg 90%
    17:00 +11°C° 2.1 mm 4 mps 734 mmHg 91%
    18:00 +10°C° 2.1 mm 5 mps 734 mmHg 92%
    19:00 +10°C° 2.1 mm 5 mps 734 mmHg 93%
    20:00 +11°C° 2.2 mm 4 mps 734 mmHg 93%
    21:00 +11°C° 2.2 mm 4 mps 734 mmHg 94%
    22:00 +10°C° 2.2 mm 4 mps 734 mmHg 95%
    23:00 +10°C° 1.7 mm 3 mps 734 mmHg 94%

    27 November, Monday

    Time Temperature Precipitation Wind Pressure Humidity
    00:00 +10°C° 1.7 mm 3 mps 734 mmHg 94%
    01:00 +10°C° 1.7 mm 2 mps 734 mmHg 93%
    02:00 +10°C° 0.7 mm 2 mps 734 mmHg 93%
    03:00 +9°C° 0.7 mm 2 mps 734 mmHg 92%
    04:00 +9°C° 0.7 mm 2 mps 734 mmHg 91%
    05:00 +9°C° 0.8 mm 3 mps 734 mmHg 89%
    06:00 +8°C° 0.8 mm 3 mps 734 mmHg 87%
    07:00 +7°C° 0.8 mm 4 mps 734 mmHg 84%
    08:00 +7°C° 0.7 mm 4 mps 735 mmHg 82%
    09:00 +7°C° 0.7 mm 5 mps 735 mmHg 80%
    10:00 +7°C° 0.7 mm 5 mps 735 mmHg 78%
    11:00 +7°C° 0.2 mm 5 mps 735 mmHg 76%
    12:00 +7°C° 0.2 mm 5 mps 735 mmHg 75%
    13:00 +7°C° 0.2 mm 5 mps 735 mmHg 73%
    14:00 +6°C° 0.1 mm 5 mps 735 mmHg 74%
    15:00 +6°C° 0.1 mm 5 mps 736 mmHg 74%
    16:00 +5°C° 0.1 mm 5 mps 736 mmHg 75%
    17:00 +5°C° 0 mm 5 mps 736 mmHg 75%
    18:00 +3°C° 0 mm 5 mps 736 mmHg 75%
    19:00 +3°C° 0 mm 5 mps 736 mmHg 75%
    20:00 +2°C° 0 mm 5 mps 737 mmHg 75%
    21:00 +2°C° 0 mm 5 mps 737 mmHg 75%
    22:00 +2°C° 0 mm 5 mps 737 mmHg 74%
    23:00 +3°C° 0.1 mm 4 mps 737 mmHg 74%

    28 November, Tuesday

    Time Temperature Precipitation Wind Pressure Humidity
    00:00 +1°C° 0.1 mm 4 mps 737 mmHg 74%
    01:00 +1°C° 0.1 mm 4 mps 737 mmHg 74%
    02:00 +1°C° 0 mm 4 mps 736 mmHg 74%
    03:00 +1°C° 0 mm 4 mps 736 mmHg 73%
    04:00 +1°C° 0 mm 4 mps 736 mmHg 73%
    05:00 +1°C° 0 mm 4 mps 737 mmHg 73%
    06:00 +1°C° 0 mm 4 mps 737 mmHg 74%
    07:00 0°C° 0 mm 4 mps 737 mmHg 74%
    08:00 +3°C° 0 mm 3 mps 737 mmHg 70%
    09:00 +4°C° 0 mm 3 mps 737 mmHg 67%
    10:00 +5°C° 0 mm 3 mps 737 mmHg 63%
    11:00 +5°C° 0 mm 3 mps 737 mmHg 62%
    12:00 +7°C° 0 mm 3 mps 736 mmHg 61%
    13:00 +7°C° 0 mm 2 mps 736 mmHg 60%
    14:00 +7°C° 0 mm 2 mps 736 mmHg 64%
    15:00 +6°C° 0 mm 2 mps 736 mmHg 68%
    16:00 +5°C° 0 mm 2 mps 736 mmHg 71%
    17:00 +5°C° 0 mm 2 mps 736 mmHg 73%
    18:00 +4°C° 0 mm 2 mps 736 mmHg 74%
    19:00 +4°C° 0 mm 1 mps 736 mmHg 75%
    20:00 +4°C° 0 mm 1 mps 736 mmHg 75%
    21:00 +4°C° 0 mm 1 mps 737 mmHg 74%
    22:00 +4°C° 0 mm 1 mps 737 mmHg 74%
    23:00 +4°C° 0 mm 1 mps 737 mmHg 74%

    29 November, Wednesday

    Time Temperature Precipitation Wind Pressure Humidity
    00:00 +4°C° 0 mm 1 mps 736 mmHg 74%
    01:00 +4°C° 0 mm 1 mps 736 mmHg 74%
    02:00 +3°C° 0 mm 2 mps 736 mmHg 75%
    03:00 +3°C° 0 mm 2 mps 736 mmHg 75%
    04:00 +3°C° 0 mm 2 mps 736 mmHg 76%
    05:00 +3°C° 0 mm 2 mps 736 mmHg 76%
    06:00 +3°C° 0 mm 2 mps 737 mmHg 77%
    07:00 +3°C° 0 mm 2 mps 737 mmHg 77%
    08:00 +4°C° 0 mm 2 mps 737 mmHg 74%
    09:00 +5°C° 0 mm 3 mps 737 mmHg 71%
    10:00 +7°C° 0 mm 3 mps 737 mmHg 68%
    11:00 +8°C° 0 mm 3 mps 737 mmHg 68%
    12:00 +8°C° 0 mm 3 mps 736 mmHg 68%
    13:00 +9°C° 0 mm 3 mps 736 mmHg 68%
    14:00 +8°C° 0 mm 3 mps 736 mmHg 72%
    15:00 +7°C° 0 mm 3 mps 736 mmHg 77%
    16:00 +5°C° 0 mm 3 mps 736 mmHg 82%
    17:00 +4°C° 0 mm 3 mps 736 mmHg 82%
    18:00 +4°C° 0 mm 3 mps 736 mmHg 82%
    19:00 +4°C° 0 mm 3 mps 736 mmHg 83%
    20:00 +4°C° 0 mm 3 mps 736 mmHg 80%
    21:00 +5°C° 0 mm 4 mps 736 mmHg 77%
    22:00 +5°C° 0 mm 4 mps 736 mmHg 75%
    23:00 +5°C° 0 mm 4 mps 735 mmHg 75%
    Show more